Temp
83 85 90 83 64 66 74 77 87 83 84 90 89 79 81 80 78 66 89 85 92 88 87 85 82 83 83 83 82 83 83 82 82 83 83 83 83 83 83 83 83 83 83 84 84 84 84 83 83
93 93 85 73 63 63 72 83 80 84 88 88 81 88 83 78 87 85 85 92 92 90 89 86 82 83 83 82 83 83 83 83 82 83 83 83 83 83 83 84 83 84 84 84 84 84 84 83 83
87 92 73 63 64 69 72 83 84 87 91 85 79 89 85 81 89 85 91 91 91 88 87 83 83 83 84 83 83 83 83 83 83 83 83 83 84 84 84 84 84 84 83 84 83 84 84 83 83
87 83 79 65 66 80 82 85 88 83 89 89 88 81 90 94 90 91 95 95 92 89 87 83 83 83 84 84 83 83 83 83 82 83 83 84 84 84 84 84 84 84 84 84 84 84 84 83 83
82 78 64 62 70 84 87 88 88 82 83 85 87 80 81 92 97 94 94 95 93 89 87 86 83 83 83 84 84 84 84 84 83 84 84 84 84 84 84 84 84 84 84 84 84 84 83 83 83
69 69 59 66 78 84 85 80 82 80 82 85 84 82 81 94 94 94 93 85 93 92 88 87 83 83 83 84 84 83 84 83 83 84 84 84 84 84 84 84 85 85 85 84 84 83 83 83 83
68 64 67 78 77 80 81 87 85 83 85 85 88 79 85 89 96 95 93 94 92 90 89 86 86 84 84 84 84 84 84 84 83 84 84 84 84 84 85 85 85 85 85 85 84 83 83 83 83
71 65 68 80 75 75 89 87 83 85 82 93 92 79 76 90 96 90 94 92 88 93 89 86 85 86 84 85 84 84 84 84 84 84 84 84 84 85 85 83 85 85 85 85 85 84 83 83 83
86 61 65 76 75 79 89 80 82 89 90 91 92 89 91 96 95 91 86 88 90 89 89 90 88 86 86 86 85 84 84 84 84 83 84 82 83 86 86 85 85 85 85 85 85 84 84 84 84
77 60 61 66 79 79 85 83 84 86 87 86 89 93 95 94 93 89 87 85 87 84 81 92 86 86 85 90 84 85 86 86 84 83 77 76 84 85 89 86 85 85 85 85 85 85 85 85 87
82 60 65 65 75 88 83 81 90 82 82 86 83 87 92 92 91 91 90 84 87 88 91 88 85 85 79 86 86 87 86 88 88 85 85 87 85 84 86 84 81 80 85 83 87 88 85 84 83
80 84 77 82 84 85 78 80 85 85 87 91 90 90 92 91 90 91 88 89 81 86 89 90 88 86 85 87 81 83 85 88 89 89 90 86 74 73 74 83 83 78 87 87 84 88 89 91 90
82 83 85 86 82 81 84 77 82 84 92 93 92 91 91 92 90 91 92 93 87 81 87 88 87 86 86 85 82 82 86 82 89 88 88 82 84 80 84 84 83 85 86 86 86 87 89 90 91
88 86 84 83 79 82 75 74 81 86 92 90 90 90 92 93 90 89 91 90 90 90 89 87 85 87 88 86 86 86 82 83 89 85 83 82 82 83 85 83 87 85 87 87 88 87 88 87 89
87 81 81 81 78 72 74 68 70 76 91 88 89 90 92 93 92 88 90 90 91 90 91 84 86 87 87 87 88 83 82 91 89 87 75 80 84 80 75 85 84 87 87 89 87 87 88 88 91
82 78 69 77 78 76 77 59 74 77 83 85 88 90 91 92 93 92 91 90 92 89 88 89 90 83 86 84 85 88 84 87 88 86 88 91 89 87 80 80 87 89 85 87 87 84 88 89 88
79 70 72 70 80 76 74 61 72 74 76 82 87 88 89 90 90 92 93 90 89 87 88 84 83 84 85 87 87 88 89 89 89 89 88 90 91 79 74 79 87 87 86 83 86 86 87 87 87
71 74 71 70 76 74 72 69 73 73 71 72 85 88 87 88 87 91 93 91 91 91 89 83 83 83 85 84 80 87 89 88 88 84 87 89 88 78 75 83 87 86 84 82 87 85 86 86 87
80 75 72 67 72 74 70 68 71 72 71 74 82 85 83 87 88 92 89 87 86 89 82 85 81 82 85 85 77 83 82 86 84 87 88 87 89 90 80 84 87 76 77 86 87 86 85 86 87
81 77 75 65 62 74 69 65 72 74 76 75 70 71 75 82 89 87 88 90 89 83 82 80 82 82 82 82 80 78 81 83 83 86 87 88 89 90 83 85 85 82 84 85 86 86 83 86 87
80 79 71 62 62 65 71 62 66 73 74 71 68 68 69 73 80 79 87 88 87 83 81 82 80 83 83 84 83 80 78 83 77 80 86 84 88 90 79 86 85 81 74 80 84 86 82 82 85
76 84 69 61 56 54 74 53 61 68 70 73 70 70 70 70 75 81 89 86 84 85 86 83 82 83 84 86 82 81 80 75 80 84 82 85 88 86 91 90 89 83 70 76 84 88 82 80 81
80 85 76 72 66 56 67 57 60 64 64 72 74 74 77 79 78 81 87 87 85 89 87 85 82 81 83 82 83 82 82 80 85 79 82 81 87 90 89 89 89 87 85 84 86 85 83 80 77
88 83 79 71 57 49 65 67 53 59 64 69 77 80 81 82 80 85 78 78 88 90 92 88 82 80 82 84 82 83 84 77 77 83 78 84 82 86 85 87 88 86 81 78 86 86 85 82 82
84 78 64 64 61 62 79 71 64 70 76 74 76 81 84 83 83 82 74 73 76 88 88 88 82 80 82 82 83 83 82 83 80 83 84 82 81 83 84 86 86 86 86 85 86 85 85 85 83
79 78 68 56 61 65 78 65 71 80 81 79 82 84 85 83 83 86 80 72 72 77 77 87 83 81 83 82 81 83 85 84 85 84 84 83 81 84 85 86 87 87 86 89 86 85 85 85 84
80 73 84 74 64 65 71 72 78 79 80 79 82 83 83 85 85 88 83 78 74 78 76 85 83 82 83 84 81 81 83 82 84 83 82 83 81 79 85 86 87 87 82 88 86 85 83 82 85
83 87 73 75 59 57 68 68 70 67 59 82 82 83 83 84 85 88 78 77 76 81 84 85 85 83 84 86 84 83 83 84 86 85 84 86 85 79 82 85 84 84 85 87 85 83 85 84 85
79 76 79 80 76 64 57 63 75 64 64 65 76 86 86 85 85 88 89 85 80 74 72 85 84 85 85 86 85 84 85 85 85 85 85 84 86 88 85 87 84 86 84 86 84 83 83 83 83
85 80 80 70 67 73 72 71 76 71 67 65 65 89 89 86 87 86 88 87 79 74 71 75 86 85 87 87 85 85 86 86 85 84 84 86 85 86 85 86 86 83 85 82 83 84 84 82 84
MSLP
1009.65 1009.72 1009.12 1008.78 1009.13 1006.70 1004.08 1003.27 1002.74 1002.81 1003.04 1003.77 1004.68 1005.30 1006.54 1006.71 1006.97 1009.92 1011.66 1012.25 1012.95 1014.28 1015.17 1015.77 1016.18 1016.12 1016.23 1016.32 1016.52 1016.68 1016.86 1016.89 1016.94 1016.99 1016.90 1016.86 1017.04 1017.20 1017.27 1017.44 1017.58 1017.64 1017.64 1017.64 1017.75 1018.02 1017.99 1017.95 1017.95
1008.53 1008.36 1008.46 1008.22 1008.02 1005.25 1003.92 1003.29 1003.08 1003.48 1004.14 1004.99 1006.06 1005.84 1006.64 1007.50 1008.36 1010.06 1011.53 1012.31 1012.80 1013.76 1014.78 1015.77 1016.20 1016.22 1016.43 1016.55 1016.71 1016.72 1016.90 1017.06 1017.04 1017.02 1017.21 1017.12 1017.34 1017.54 1017.63 1017.78 1017.95 1017.86 1017.97 1018.01 1018.04 1018.20 1018.29 1018.36 1018.18
1009.11 1008.36 1008.49 1008.33 1006.66 1004.20 1003.44 1003.30 1003.55 1004.10 1004.24 1005.44 1006.58 1006.51 1007.24 1008.01 1008.94 1010.88 1011.96 1012.56 1013.32 1014.24 1015.25 1016.06 1016.36 1016.51 1016.62 1016.70 1016.82 1016.89 1017.17 1017.22 1017.24 1017.30 1017.36 1017.49 1017.66 1017.73 1017.90 1017.97 1018.05 1018.18 1018.31 1018.29 1018.32 1018.37 1018.54 1018.64 1018.35
1008.47 1008.63 1008.40 1007.72 1005.34 1003.44 1002.96 1003.51 1003.96 1004.80 1004.84 1005.76 1006.52 1007.14 1007.66 1008.28 1009.29 1010.80 1011.49 1012.22 1013.22 1014.43 1015.46 1016.18 1016.42 1016.67 1016.90 1016.98 1017.06 1017.15 1017.30 1017.39 1017.38 1017.65 1017.66 1017.76 1017.89 1017.91 1018.08 1018.20 1018.38 1018.38 1018.50 1018.57 1018.61 1018.57 1018.67 1018.67 1018.42
1009.15 1008.60 1007.91 1006.62 1004.66 1002.96 1003.18 1004.00 1004.45 1004.70 1005.75 1006.28 1006.99 1007.79 1008.42 1008.98 1009.39 1010.56 1011.56 1012.20 1012.84 1014.44 1015.64 1016.27 1016.64 1016.90 1017.15 1017.32 1017.33 1017.32 1017.40 1017.52 1017.60 1017.73 1017.86 1017.97 1018.04 1018.17 1018.25 1018.44 1018.55 1018.64 1018.73 1018.75 1018.79 1018.83 1018.82 1018.74 1018.64
1008.80 1008.26 1007.93 1005.38 1003.64 1003.40 1003.95 1005.29 1005.29 1005.77 1006.40 1006.83 1007.58 1008.35 1009.17 1009.59 1009.92 1010.56 1012.30 1012.99 1012.76 1014.04 1015.51 1016.32 1016.91 1017.16 1017.34 1017.44 1017.54 1017.60 1017.58 1017.68 1017.74 1017.80 1017.94 1018.08 1018.24 1018.36 1018.49 1018.61 1018.73 1018.77 1018.88 1018.94 1018.96 1018.92 1018.88 1018.88 1018.86
1008.75 1009.04 1007.11 1004.69 1004.28 1003.76 1004.36 1004.97 1005.30 1005.84 1005.86 1006.77 1007.97 1008.45 1009.47 1009.83 1010.12 1010.96 1011.87 1012.50 1013.43 1014.13 1015.33 1016.17 1016.79 1017.24 1017.49 1017.63 1017.67 1017.81 1017.86 1017.88 1017.80 1017.80 1017.88 1018.05 1018.24 1018.37 1018.50 1018.67 1018.85 1018.91 1018.97 1019.00 1018.98 1018.96 1018.92 1018.89 1018.80
1008.96 1009.42 1007.30 1004.94 1004.81 1004.40 1003.88 1004.77 1006.36 1006.01 1006.06 1006.86 1007.66 1008.40 1009.66 1009.82 1010.16 1011.46 1012.10 1013.00 1013.74 1014.18 1015.21 1015.92 1016.52 1016.94 1017.38 1017.71 1017.88 1017.98 1018.07 1018.01 1017.78 1017.67 1017.78 1017.75 1017.93 1018.27 1018.46 1018.60 1018.66 1018.76 1018.75 1018.73 1018.91 1019.02 1018.94 1018.85 1018.74
1008.00 1008.92 1007.39 1006.10 1005.66 1004.96 1004.53 1005.78 1006.78 1006.20 1005.83 1006.41 1007.13 1008.05 1009.27 1009.85 1010.40 1011.45 1012.52 1013.33 1013.90 1014.56 1015.07 1015.67 1016.00 1016.62 1016.96 1017.52 1018.01 1018.14 1018.14 1017.93 1017.68 1018.27 1019.17 1019.13 1018.11 1017.87 1018.12 1018.22 1018.33 1018.41 1018.29 1018.43 1018.75 1018.87 1018.93 1018.95 1018.92
1006.59 1008.86 1008.06 1008.13 1006.39 1005.71 1005.65 1005.74 1006.15 1005.90 1005.95 1006.92 1007.70 1008.54 1009.24 1009.89 1010.61 1011.38 1012.41 1013.23 1014.14 1015.02 1015.19 1015.20 1015.60 1016.42 1016.81 1017.12 1017.88 1017.94 1018.06 1017.82 1017.56 1018.70 1019.03 1018.96 1018.76 1018.02 1018.05 1018.56 1019.00 1019.02 1018.47 1018.28 1018.51 1018.77 1018.58 1018.78 1018.46
1005.40 1006.44 1008.82 1007.82 1007.22 1005.80 1006.49 1006.32 1005.98 1006.15 1006.24 1007.16 1008.36 1009.25 1009.33 1010.14 1010.75 1011.40 1012.26 1013.13 1013.74 1014.60 1015.03 1015.68 1016.09 1016.54 1017.15 1017.00 1017.44 1017.48 1017.71 1017.42 1017.30 1018.01 1018.72 1018.94 1018.81 1018.60 1019.02 1019.78 1020.74 1019.07 1019.46 1018.04 1017.93 1017.92 1017.97 1018.65 1018.16
1004.86 1005.97 1007.65 1007.04 1006.67 1006.58 1007.39 1007.13 1006.24 1006.15 1006.22 1007.44 1008.90 1009.56 1009.42 1010.13 1010.70 1011.20 1012.36 1012.88 1014.00 1014.67 1015.12 1015.83 1016.19 1016.51 1016.76 1016.86 1017.52 1017.49 1017.36 1017.19 1017.19 1017.16 1017.71 1018.16 1020.02 1019.37 1019.05 1019.48 1019.45 1018.38 1018.20 1017.60 1017.82 1017.49 1017.26 1017.27 1017.03
1004.42 1005.82 1006.26 1006.42 1007.42 1007.77 1007.88 1008.15 1007.68 1007.36 1006.88 1007.97 1009.06 1009.42 1009.64 1009.90 1010.50 1011.18 1011.99 1012.78 1014.28 1014.89 1015.56 1016.03 1016.52 1016.80 1016.82 1017.08 1017.57 1017.32 1017.17 1017.43 1017.23 1017.38 1017.80 1018.22 1018.06 1018.66 1018.25 1018.29 1018.69 1018.01 1017.56 1017.49 1017.81 1017.69 1017.46 1017.35 1017.37
1004.04 1004.88 1006.00 1006.98 1007.95 1008.11 1008.90 1009.64 1008.85 1008.17 1007.76 1008.43 1009.14 1009.40 1009.60 1009.79 1010.98 1011.32 1012.17 1013.01 1013.82 1014.36 1015.26 1016.04 1016.78 1016.96 1016.96 1016.96 1017.05 1017.25 1017.26 1017.30 1017.21 1017.99 1018.55 1018.96 1018.36 1018.53 1017.96 1017.40 1017.46 1017.23 1017.40 1017.69 1017.75 1017.57 1017.32 1017.40 1017.45
1003.77 1004.33 1005.87 1006.66 1008.00 1009.32 1009.54 1010.41 1010.22 1009.68 1008.34 1008.95 1009.22 1009.30 1009.44 1009.81 1010.53 1011.58 1012.39 1013.15 1013.82 1014.35 1015.18 1016.28 1016.91 1017.22 1017.19 1017.13 1017.13 1017.48 1017.20 1016.98 1017.80 1018.56 1019.13 1018.87 1018.24 1019.11 1018.34 1017.11 1017.21 1017.24 1017.62 1017.67 1017.57 1017.44 1017.15 1017.25 1017.15
1003.37 1004.43 1005.54 1006.81 1007.75 1009.10 1009.26 1011.15 1010.87 1010.32 1009.78 1009.36 1009.24 1009.16 1009.56 1010.00 1010.62 1011.58 1012.42 1013.13 1013.78 1014.54 1015.41 1015.76 1016.58 1017.34 1017.40 1017.40 1017.40 1017.09 1017.14 1017.21 1017.86 1018.79 1018.53 1018.52 1017.72 1017.96 1018.86 1017.63 1017.12 1017.24 1017.56 1017.47 1017.18 1017.39 1017.19 1017.16 1017.22
1002.96 1004.01 1005.00 1006.99 1007.52 1008.90 1009.51 1011.00 1011.55 1011.10 1010.90 1009.79 1009.38 1009.48 1009.74 1010.22 1010.88 1011.70 1012.38 1013.32 1014.02 1014.91 1015.56 1016.12 1016.61 1017.24 1017.34 1017.25 1017.28 1016.94 1016.91 1017.10 1017.27 1017.82 1018.21 1018.00 1018.24 1020.24 1019.54 1019.62 1017.66 1017.69 1017.66 1017.69 1017.52 1017.46 1017.41 1017.24 1017.41
1002.48 1003.13 1005.21 1006.20 1007.64 1008.85 1009.63 1010.48 1011.35 1011.37 1011.48 1010.80 1009.79 1010.11 1010.19 1010.54 1011.35 1011.80 1012.45 1013.35 1014.04 1014.87 1015.65 1016.01 1016.87 1017.26 1017.50 1017.43 1017.69 1017.30 1017.30 1017.21 1017.32 1017.94 1018.12 1017.94 1018.06 1020.06 1020.84 1019.43 1017.89 1018.02 1018.01 1018.62 1017.85 1017.72 1017.66 1017.68 1017.59
1002.12 1002.98 1005.16 1007.09 1008.92 1009.26 1009.70 1010.75 1011.26 1012.07 1011.94 1011.60 1010.87 1011.05 1011.12 1010.76 1011.28 1011.67 1012.79 1013.82 1014.28 1014.99 1015.99 1016.35 1017.04 1017.44 1017.63 1017.87 1018.23 1018.02 1017.95 1017.65 1018.17 1018.25 1018.51 1018.57 1017.94 1017.91 1018.81 1018.28 1018.40 1019.59 1018.95 1018.38 1018.17 1018.10 1017.94 1017.85 1017.63
1002.21 1002.78 1004.68 1008.74 1006.87 1009.17 1009.94 1010.73 1011.10 1011.59 1011.73 1011.97 1012.21 1012.16 1012.94 1011.82 1011.56 1012.15 1012.76 1013.58 1014.09 1015.20 1016.07 1016.74 1017.21 1017.51 1017.80 1017.92 1018.16 1018.12 1018.07 1018.16 1018.38 1018.38 1018.54 1018.74 1018.85 1018.69 1019.63 1019.38 1019.15 1019.22 1019.35 1019.05 1018.92 1018.48 1018.14 1017.77 1017.56
1001.76 1002.24 1004.95 1008.40 1009.92 1009.81 1009.81 1011.33 1011.11 1011.58 1012.20 1012.68 1012.94 1013.43 1014.17 1013.60 1012.66 1012.53 1012.66 1013.19 1014.16 1014.97 1015.82 1016.65 1017.38 1017.38 1017.81 1017.89 1017.95 1018.25 1018.44 1018.50 1018.93 1018.90 1018.76 1018.79 1018.78 1018.90 1019.90 1019.52 1019.36 1019.60 1020.18 1019.53 1019.08 1018.69 1018.58 1018.76 1018.48
1001.12 1002.04 1005.31 1007.48 1010.14 1005.65 1008.81 1010.06 1011.44 1011.44 1011.89 1012.57 1013.36 1014.18 1014.38 1014.32 1013.16 1013.32 1012.59 1013.26 1013.90 1014.67 1015.30 1016.13 1016.94 1017.28 1017.46 1017.57 1017.95 1018.16 1018.62 1018.80 1018.84 1018.76 1018.70 1018.66 1018.52 1018.74 1019.01 1019.42 1019.28 1019.57 1021.16 1019.75 1019.03 1018.94 1019.66 1019.71 1019.20
1000.89 1002.44 1004.73 1006.23 1007.71 1008.37 1007.96 1008.50 1010.28 1011.22 1011.26 1010.83 1011.92 1012.70 1013.25 1013.18 1013.15 1013.08 1012.73 1012.54 1013.78 1013.90 1014.58 1015.66 1016.54 1017.06 1017.24 1017.65 1017.87 1018.08 1018.26 1018.53 1018.41 1018.62 1019.01 1018.95 1018.56 1018.56 1018.80 1019.28 1019.55 1019.33 1019.28 1019.06 1019.02 1019.28 1019.58 1019.78 1020.08
1000.86 1001.74 1003.30 1004.71 1007.42 1008.97 1006.35 1006.32 1008.86 1010.07 1009.12 1009.94 1010.51 1010.88 1011.58 1012.09 1012.28 1012.18 1013.58 1013.72 1012.85 1013.39 1013.90 1014.88 1016.08 1017.04 1017.24 1017.42 1017.90 1017.92 1018.05 1018.64 1018.55 1018.59 1018.93 1018.97 1018.98 1018.78 1018.82 1019.04 1019.43 1019.56 1019.90 1019.88 1018.86 1019.12 1019.61 1019.86 1020.34
1000.98 1001.44 1002.11 1003.12 1005.00 1003.94 1002.72 1004.38 1005.84 1006.82 1006.66 1007.33 1007.99 1008.60 1009.52 1010.92 1011.68 1012.30 1014.18 1014.75 1013.28 1013.50 1013.71 1014.58 1015.63 1016.56 1017.14 1017.29 1017.54 1017.71 1018.10 1018.24 1018.41 1018.48 1018.57 1018.61 1018.80 1018.71 1018.61 1018.64 1019.05 1019.06 1019.07 1018.91 1018.41 1018.76 1019.52 1019.74 1020.14
1000.91 1001.30 1001.07 1001.76 1002.54 1002.65 1002.26 1003.29 1003.28 1003.98 1004.17 1005.08 1006.14 1007.13 1008.14 1009.46 1010.81 1011.26 1012.81 1013.12 1014.08 1014.02 1014.30 1014.26 1015.34 1016.04 1016.64 1017.12 1017.42 1017.64 1017.82 1017.84 1018.08 1018.25 1018.40 1018.31 1018.47 1018.54 1018.42 1018.56 1018.70 1018.77 1018.71 1018.61 1018.54 1018.86 1019.03 1019.13 1019.34
1000.06 1000.74 1000.81 1000.45 1003.58 1003.19 1002.76 1003.78 1003.86 1005.52 1004.91 1005.33 1005.70 1006.22 1007.01 1007.94 1009.46 1010.20 1011.49 1012.76 1013.75 1013.57 1014.45 1014.45 1014.96 1015.54 1016.06 1016.43 1017.18 1017.47 1017.60 1017.80 1017.61 1018.16 1018.17 1018.28 1018.56 1018.73 1018.77 1018.80 1018.71 1018.80 1019.18 1018.85 1018.97 1019.25 1019.46 1019.28 1019.20
1000.10 1000.02 1000.22 1000.42 1001.52 1001.91 1001.83 1003.20 1004.18 1005.93 1006.62 1005.55 1005.60 1006.09 1006.60 1007.36 1008.74 1009.52 1011.25 1012.58 1013.44 1013.80 1014.12 1014.69 1014.84 1015.21 1015.60 1015.84 1016.63 1017.22 1017.41 1017.51 1017.68 1017.94 1018.06 1018.27 1018.31 1018.70 1019.07 1018.92 1018.87 1018.97 1018.84 1018.91 1019.26 1019.49 1019.59 1019.54 1019.50
1000.32 1000.19 1000.03 999.82 1000.14 1000.86 1002.71 1004.33 1004.87 1006.51 1007.44 1008.14 1006.60 1005.14 1005.69 1006.83 1007.82 1008.71 1009.87 1011.72 1012.82 1014.58 1015.12 1014.66 1014.48 1014.90 1015.25 1015.50 1015.91 1016.46 1016.83 1017.16 1017.43 1017.69 1017.96 1018.21 1018.16 1018.26 1018.51 1018.82 1018.99 1019.14 1019.20 1019.19 1019.46 1019.61 1019.91 1019.99 1019.86
999.91 999.92 1000.09 999.87 1000.19 1000.47 1001.22 1002.68 1005.58 1006.08 1006.22 1008.10 1006.98 1004.40 1005.13 1006.26 1007.43 1008.32 1009.54 1011.05 1012.46 1013.31 1014.92 1014.55 1013.60 1014.98 1014.46 1014.84 1015.51 1016.02 1016.41 1016.67 1017.14 1017.45 1017.71 1017.97 1018.18 1018.11 1018.37 1018.73 1019.06 1019.22 1019.25 1019.37 1019.53 1019.63 1019.62 1019.84 1019.74
Wind_Speed
7 8 8 2 4 6 15 16 16 17 16 22 22 15 17 3 14 13 20 6 23 19 16 15 13 14 14 15 15 15 14 15 14 15 16 17 17 16 16 17 16 17 17 17 17 15 15 14 11
10 9 3 1 5 2 13 15 17 17 12 23 20 21 23 26 26 20 21 19 19 15 17 15 12 13 14 16 15 15 15 14 16 16 15 17 17 17 17 16 16 15 14 15 17 15 14 12 9
13 7 3 2 3 7 14 16 17 14 19 16 10 20 18 21 25 14 23 21 20 17 16 15 13 13 13 15 15 14 15 16 15 16 16 17 17 17 16 16 15 15 14 13 13 14 13 10 8
3 3 5 5 7 17 18 19 16 22 20 20 20 16 19 20 28 24 22 19 19 18 17 14 14 14 14 13 14 14 15 15 15 16 16 17 16 17 16 15 14 13 11 10 10 10 10 10 8
2 4 1 5 8 20 20 17 12 8 18 13 22 19 22 19 19 23 19 19 21 20 16 14 14 13 14 13 14 13 14 14 14 15 15 16 15 16 15 15 13 12 13 12 11 12 12 10 7
2 3 1 6 16 23 23 24 4 16 19 20 20 21 18 17 15 23 23 8 16 21 17 14 13 12 12 13 13 14 13 13 13 13 13 13 13 12 14 14 13 13 12 11 10 11 11 8 5
3 1 8 16 17 19 23 22 12 14 22 21 20 23 17 15 15 22 18 19 20 16 16 13 13 12 13 12 13 14 12 12 12 13 13 12 12 12 13 13 13 12 11 9 9 9 9 7 5
4 3 8 16 14 13 14 20 16 15 8 24 19 16 12 14 17 23 18 18 17 15 15 13 12 12 11 10 12 13 12 12 10 12 13 15 15 13 13 11 10 10 8 8 8 7 7 9 10
10 2 4 14 15 11 17 20 12 11 16 11 14 24 19 17 16 22 16 15 13 12 10 15 12 13 12 10 10 11 10 10 10 9 9 9 8 11 10 10 10 10 10 10 10 9 9 8 9
8 4 11 6 4 7 8 8 17 8 13 18 17 22 19 18 16 15 16 16 18 14 3 8 6 13 5 11 9 9 9 7 6 8 13 7 4 6 9 8 8 7 10 7 7 9 12 10 5
6 8 14 16 20 18 12 5 17 14 13 21 22 19 16 16 14 13 19 13 19 14 11 7 7 16 7 8 5 5 5 4 3 1 3 5 5 5 1 3 10 6 6 6 5 9 7 9 7
3 16 10 5 11 16 8 11 13 11 18 22 20 18 16 17 14 14 18 18 7 13 14 12 8 7 3 6 2 4 4 5 4 1 3 3 11 10 5 4 9 4 5 4 6 1 1 4 6
10 15 12 13 13 7 16 13 11 5 20 22 20 17 16 16 10 16 15 16 19 14 16 12 9 4 3 3 6 4 3 3 6 4 0 4 6 9 2 5 5 1 2 5 4 2 2 4 5
11 14 14 17 13 11 16 6 2 1 18 20 19 18 16 15 14 15 14 15 11 12 16 13 10 6 3 5 5 4 4 5 5 5 8 11 2 3 4 3 4 5 5 4 1 2 1 4 5
9 14 12 16 14 8 12 5 2 8 11 19 18 16 15 14 15 17 13 13 12 11 12 14 13 7 4 5 3 5 5 6 8 9 9 5 6 15 10 1 4 4 4 4 5 5 4 4 4
12 8 9 10 15 13 10 7 6 7 3 17 18 16 14 13 15 14 18 12 12 13 11 14 16 9 6 6 6 3 3 5 6 7 7 2 4 8 11 6 1 3 2 5 2 3 2 2 4
12 11 10 13 12 15 9 12 14 10 7 10 14 15 14 13 15 13 13 12 19 11 10 10 14 11 6 5 3 4 3 4 4 7 5 2 2 18 12 8 3 5 6 6 4 4 2 2 1
13 14 6 14 16 16 13 10 14 6 7 13 15 14 12 15 14 16 15 12 16 13 9 6 12 10 7 3 4 2 1 2 3 5 5 4 2 19 11 9 5 6 5 9 3 4 5 4 2
10 4 7 7 11 18 13 14 18 17 14 14 8 10 6 12 16 16 18 8 12 12 10 6 12 9 6 4 4 4 2 1 6 5 6 5 1 3 6 6 3 7 6 5 5 4 5 2 4
10 17 5 9 13 9 15 15 17 17 10 7 4 5 9 6 16 13 17 16 17 14 11 7 10 11 5 2 2 3 1 2 4 2 5 4 3 2 8 3 5 4 5 5 5 3 4 2 2
20 16 10 5 12 23 16 10 12 15 7 10 4 4 9 10 2 0 19 18 17 16 13 12 10 9 7 5 4 4 3 3 3 3 3 4 5 4 5 5 2 8 10 5 6 3 6 5 5
13 4 21 20 4 3 14 8 11 12 16 19 15 19 17 16 3 16 13 18 18 17 16 12 12 11 8 6 3 8 6 3 6 5 2 2 4 3 2 2 2 7 8 8 5 2 5 5 6
12 6 8 14 4 7 16 6 6 12 17 23 22 26 23 15 18 12 10 13 15 20 18 15 13 10 5 6 3 6 5 1 2 4 4 2 2 3 3 4 2 3 3 5 4 4 6 5 9
2 7 13 12 6 6 24 9 6 12 26 21 21 23 26 19 18 13 4 13 12 11 15 17 15 10 8 6 6 6 3 5 2 5 5 6 5 4 5 4 3 4 5 10 4 4 4 4 5
6 8 6 5 11 12 14 12 9 28 22 25 25 23 23 20 20 15 10 6 3 9 10 15 16 12 11 8 7 5 5 5 5 4 4 4 3 4 5 5 4 3 2 5 3 4 3 3 2
10 14 10 11 2 11 16 10 13 30 20 18 25 24 23 23 20 20 21 13 6 10 10 18 15 14 11 11 8 5 5 6 4 5 2 4 5 4 8 5 5 5 4 2 4 4 4 3 3
13 14 19 23 12 13 3 3 18 8 16 17 21 20 22 23 22 19 17 17 16 12 8 13 16 14 13 12 9 6 6 4 4 5 2 3 6 4 3 6 4 4 5 3 3 3 4 1 4
17 11 11 11 8 12 4 8 2 3 15 7 24 23 22 20 22 18 20 19 15 13 13 10 16 14 12 12 11 9 8 6 4 4 4 2 1 10 10 6 5 5 4 2 3 5 4 4 2
11 14 11 12 11 10 6 6 8 11 6 14 17 23 20 23 20 19 16 17 16 10 11 14 15 14 12 11 12 10 9 10 8 5 4 5 2 3 6 3 4 5 4 5 4 4 4 4 5
16 15 16 9 10 11 12 5 20 18 13 11 34 15 22 21 19 16 13 10 14 17 12 11 17 13 14 11 10 10 8 8 9 7 6 5 4 3 5 5 4 5 6 5 5 6 5 6 4
Wind_Direction
225 205 237 278 238 219 100 106 99 99 81 67 67 84 67 36 79 94 124 173 110 112 125 103 100 98 99 100 98 100 106 110 109 101 98 97 96 98 98 96 97 95 96 93 95 87 81 82 77
224 236 232 185 255 172 109 112 110 97 105 68 18 82 80 86 94 115 109 108 105 125 114 106 103 93 90 90 90 95 97 96 99 99 98 97 99 98 96 98 94 95 94 92 87 87 84 83 75
247 277 307 285 256 124 123 116 106 125 125 119 139 92 96 109 107 102 108 114 107 97 104 110 107 100 93 88 89 92 95 97 95 100 105 102 103 102 97 98 98 95 96 97 93 89 91 85 73
360 233 212 254 226 130 121 117 129 126 89 89 105 79 86 97 114 122 133 131 122 116 108 111 109 104 97 91 89 91 93 92 96 102 109 105 102 98 100 98 97 99 101 97 87 92 98 89 68
83 231 232 265 239 114 108 99 95 100 93 94 105 103 92 103 119 120 128 124 124 112 120 111 105 104 103 100 92 91 96 97 101 102 103 108 106 106 102 98 96 100 99 109 93 91 93 92 74
307 22 245 224 122 111 101 96 349 124 129 115 101 104 106 118 121 130 113 61 128 117 113 118 115 111 106 103 101 100 98 98 100 100 109 111 107 107 100 98 93 102 111 111 108 100 100 103 107
275 100 242 117 112 119 121 137 93 79 117 115 119 115 125 130 126 106 115 142 79 109 122 129 125 121 114 106 107 105 106 106 111 116 121 118 117 111 104 100 102 104 106 110 121 117 124 136 158
88 5 286 115 117 125 116 96 129 102 166 108 129 126 122 141 119 117 127 104 135 118 115 126 141 137 134 123 113 111 116 120 125 143 145 142 132 129 126 127 116 120 132 147 141 146 170 180 193
124 268 232 122 116 102 116 107 37 196 131 118 123 133 151 136 134 108 107 124 113 97 139 136 164 148 126 133 126 124 129 138 155 148 127 160 151 142 156 127 149 158 179 178 170 176 197 217 230
154 97 321 316 103 113 99 58 161 131 114 110 121 110 139 132 132 131 144 124 114 108 213 134 111 111 132 123 159 152 151 168 213 138 129 237 191 136 147 159 177 193 198 220 223 197 203 210 224
128 138 195 205 256 127 129 173 143 196 124 123 123 137 146 136 136 138 113 159 131 146 126 104 92 127 209 131 164 162 172 150 99 106 209 131 105 45 349 87 42 267 216 244 223 202 224 243 235
107 122 154 132 61 113 87 296 66 24 126 124 136 154 145 151 154 144 124 111 113 118 116 115 91 73 12 123 197 176 171 160 159 117 150 138 86 316 265 193 182 213 188 157 192 26 152 75 38
115 140 128 132 91 78 85 44 45 108 115 123 144 161 152 156 151 122 130 115 141 150 124 114 113 137 74 69 182 183 189 97 132 190 285 343 118 193 158 197 52 240 164 73 42 359 140 84 75
162 135 127 107 102 108 104 65 22 273 128 134 151 155 167 156 139 115 120 126 133 129 125 122 111 113 60 65 101 98 102 175 164 67 28 44 253 25 337 315 160 68 44 71 74 286 347 150 132
226 139 135 138 139 121 97 45 344 296 134 144 160 165 164 150 133 128 133 133 137 134 123 120 124 127 148 121 133 151 215 159 101 89 22 270 220 131 239 242 71 121 148 220 197 247 223 132 134
184 167 151 154 142 148 170 169 207 264 280 163 166 166 153 153 141 131 137 142 132 127 134 162 136 150 182 158 211 164 223 107 129 135 177 210 348 3 14 349 84 32 321 207 172 311 33 94 115
194 192 175 157 176 160 197 128 209 260 269 220 165 157 161 154 138 127 131 136 120 129 150 122 132 129 156 187 45 80 92 142 152 165 141 102 56 66 345 307 65 356 320 42 350 343 23 276 156
213 201 188 183 169 172 161 144 170 239 261 279 151 167 159 150 139 147 155 134 133 140 146 128 122 122 143 189 56 87 217 179 100 74 88 123 329 93 239 254 18 20 343 154 1 355 336 340 323
208 179 229 122 300 170 146 150 170 185 238 256 131 168 228 169 143 165 118 101 117 129 112 103 122 135 145 160 160 212 251 57 97 136 167 98 271 40 20 342 6 46 298 27 12 326 305 287 13
263 265 168 106 303 205 155 153 176 183 213 100 77 346 340 241 164 140 140 153 148 127 138 133 135 145 181 201 127 80 106 54 87 37 130 124 160 225 149 30 4 28 354 1 293 321 321 313 57
240 265 98 81 166 250 139 140 175 177 174 112 100 326 299 297 319 242 156 161 146 149 155 154 165 166 193 177 134 90 51 97 26 155 179 188 178 189 250 121 33 50 7 307 299 360 19 357 350
243 80 136 144 256 154 191 137 186 184 192 176 175 193 215 224 250 210 180 152 161 163 161 156 164 165 200 166 194 152 185 183 188 189 166 215 189 197 145 116 356 107 172 274 304 9 26 37 4
256 176 124 105 9 46 215 89 178 184 220 206 186 202 216 208 201 204 208 171 185 161 162 162 160 175 194 178 210 172 195 163 195 110 126 84 251 223 230 151 184 293 3 286 283 354 21 24 59
257 223 176 114 91 286 251 156 175 199 222 204 201 208 202 197 223 235 349 307 152 157 155 148 151 165 173 163 199 193 141 104 323 167 163 175 195 203 252 200 202 231 129 254 291 6 349 21 27
245 243 230 231 185 234 144 190 140 208 204 196 195 201 199 192 201 207 185 199 21 200 166 149 149 163 167 181 173 185 168 144 156 140 205 183 196 203 188 200 182 242 248 294 341 310 332 320 6
194 245 248 214 319 325 327 351 157 185 199 186 183 200 194 176 193 215 152 129 238 267 353 150 154 157 185 171 178 175 190 177 183 201 197 249 181 246 159 177 180 244 218 237 295 323 294 322 327
214 222 258 281 42 277 152 180 163 177 214 192 179 188 191 183 192 202 153 160 180 226 215 164 157 165 182 167 168 182 187 235 205 136 184 243 131 103 154 196 201 189 241 232 334 279 300 266 314
259 277 234 244 239 258 285 172 229 172 353 201 175 192 188 181 187 204 160 172 184 193 217 198 159 167 179 172 164 172 190 182 188 184 224 246 11 152 212 171 189 212 219 181 245 287 280 284 309
213 248 267 289 257 248 131 209 130 101 160 279 284 186 181 181 183 192 183 166 167 118 288 199 163 168 181 176 172 170 186 177 180 189 205 220 204 175 159 193 200 193 209 212 201 281 310 334 300
255 219 241 255 258 274 294 320 125 106 88 3 277 174 168 180 181 180 174 189 169 158 186 280 153 173 183 182 171 172 194 167 169 193 194 207 190 238 174 179 223 212 204 219 182 245 285 221 239